Change the Weather History Date:

Tuesday, August 12, 2014

  Actual Average Record
Temperature  
Mean Temperature 86 °F 82 °F  
Max Temperature 94 °F 90 °F 96 °F (1973)
Min Temperature 77 °F 74 °F 67 °F (1949)
Degree Days  
Heating Degree Days 0 0  
Month to date heating degree days 0 0  
Since 1 June heating degree days 0 0  
Since 1 July heating degree days 0 0  
Cooling Degree Days 21 17  
Month to date cooling degree days 246 204  
Year to date cooling degree days 2165 1966  
Since 1 June cooling degree days 1353 1215  
Growing Degree Days 35 (Base 50)    
Moisture  
Dew Point 73 °F    
Average Humidity 67    
Maximum Humidity 88    
Minimum Humidity 52    
Precipitation  
Precipitation T in 0.30 in 4.22 in (1939)
Month to date precipitation 0.44 3.32  
Year to date precipitation 27.95 32.51  
Sea Level Pressure  
Sea Level Pressure 29.99 in    
Wind  
Wind Speed 8 mph (SSW)    
Max Wind Speed 20 mph    
Max Gust Speed 25 mph    
Visibility 10 miles    
Events      
T = Trace of Precipitation, MM = Missing Value Source: NWS Daily Summary

Daily Weather History Graph

Daily Weather History Graph

Search for Another Location

Airport or City:

Trip Planner

Search our weather history database for the weather conditions in past years. The results will help you decide how hot, cold, wet, or windy it might be!

Date:

Astronomy

Aug. 12, 2014 Rise Set
Actual Time 6:59 AM EDT 8:10 PM EDT
Civil Twilight 6:35 AM EDT 8:35 PM EDT
Nautical Twilight 6:05 AM EDT 9:04 PM EDT
Astronomical Twilight 5:35 AM EDT 9:34 PM EDT
Moon 9:36 PM EDT (8/12) 8:59 AM EDT (8/12)
Length of Visible Light 14h 00m
Length of Day
13h 10m
Waning Gibbous, 95% of the Moon is Illuminated
Aug 12
Waning Gibbous
Aug 17
Last Quarter
Aug 25
New
Sep 2
First Quarter
Sep 8
Full

Hourly Weather History & Observations

Time (EDT) Temp. Heat Index Dew Point Humidity Pressure Visibility Wind Dir Wind Speed Gust Speed Precip Events Conditions
12:53 AM 79.0 °F - 72.0 °F 79% 30.02 in 10.0 mi ESE 4.6 mph - N/A   Clear
1:53 AM 79.0 °F - 72.0 °F 79% 30.00 in 10.0 mi ESE 4.6 mph - N/A   Clear
2:53 AM 78.1 °F - 73.0 °F 84% 29.99 in 10.0 mi Calm Calm - N/A   Clear
3:53 AM 78.1 °F - 73.0 °F 84% 29.98 in 10.0 mi ESE 5.8 mph - N/A   Scattered Clouds
4:53 AM 77.0 °F - 73.0 °F 88% 29.97 in 10.0 mi ESE 4.6 mph - N/A   Partly Cloudy
5:53 AM 78.1 °F - 73.0 °F 84% 29.97 in 10.0 mi SE 8.1 mph - N/A   Partly Cloudy
6:53 AM 77.0 °F - 73.0 °F 88% 29.98 in 10.0 mi SE 4.6 mph - N/A   Partly Cloudy
7:53 AM 80.1 °F 84.5 °F 73.9 °F 81% 29.99 in 10.0 mi SE 6.9 mph - N/A   Partly Cloudy
8:53 AM 84.9 °F 93.3 °F 75.0 °F 72% 30.00 in 10.0 mi South 6.9 mph - N/A   Clear
9:53 AM 90.0 °F 96.9 °F 72.0 °F 55% 30.00 in 10.0 mi SW 10.4 mph - N/A   Clear
10:53 AM 91.0 °F 98.2 °F 72.0 °F 53% 30.02 in 10.0 mi SW 8.1 mph - N/A   Clear
11:53 AM 91.9 °F 99.5 °F 72.0 °F 52% 30.03 in 10.0 mi WSW 13.8 mph - N/A   Partly Cloudy
1:53 PM 93.0 °F 101.9 °F 73.0 °F 52% 30.01 in 10.0 mi SW 12.7 mph - N/A   Partly Cloudy
2:53 PM 93.0 °F 101.9 °F 73.0 °F 52% 30.00 in 10.0 mi WSW 12.7 mph - N/A   Partly Cloudy
3:53 PM 91.9 °F 101.3 °F 73.9 °F 55% 29.98 in 10.0 mi WSW 11.5 mph - N/A   Scattered Clouds
4:53 PM 91.0 °F 100.4 °F 73.9 °F 57% 29.97 in 10.0 mi WSW 10.4 mph - 0.00 in   Scattered Clouds
5:53 PM 90.0 °F 99.0 °F 73.9 °F 59% 29.96 in 10.0 mi WSW 9.2 mph - N/A   Partly Cloudy
6:53 PM 89.1 °F 97.0 °F 73.0 °F 59% 29.95 in 10.0 mi SW 9.2 mph - N/A   Clear
7:53 PM 88.0 °F 94.7 °F 72.0 °F 59% 29.95 in 10.0 mi SSW 11.5 mph - N/A   Clear
8:53 PM 87.1 °F 95.4 °F 73.9 °F 65% 29.97 in 10.0 mi WSW 8.1 mph - N/A   Clear
9:53 PM 87.1 °F 95.4 °F 73.9 °F 65% 29.98 in 10.0 mi WSW 5.8 mph - N/A   Mostly Cloudy
10:53 PM 87.1 °F 94.5 °F 73.0 °F 63% 30.00 in 10.0 mi WSW 6.9 mph - N/A   Partly Cloudy
11:53 PM 86.0 °F 93.0 °F 73.0 °F 65% 30.00 in 10.0 mi SW 4.6 mph - N/A   Clear